User: anonymous   Login
Location: Igri�s
(42.2144°N, 0.4320°W)
Time: 13:15:47
(UTC+00:00)
Language:

Cosmos 2242 Rocket - Orbit

View from above orbital plane
View from above orbital plane
View from above satellite
View from above satellite

Ground track
Ground track

The orbit data is extracted from the following two-line orbital elements,

1 22627U 93024B   20294.60981399 +.00000089 +00000-0 +91853-5 0  9997
2 22627 082.5248 045.8003 0022137 298.8109 061.0881 14.78182741482575
Epoch (UTC): 20 October 2020 14:38:07
Eccentricity: 0.0022137
inclination: 82.5248°
perigee height: 619 km
apogee height: 650 km
right ascension of ascending node: 45.8003°
argument of perigee: 298.8109°
revolutions per day: 14.78182741
mean anomaly at epoch: 61.0881°
orbit number at epoch: 48257

The dashed part of the orbit path shows where the satellite is in the earth's shadow,  

DLR